Regional Weather Roundup
Issued by NWS Newport/Morehead, NC

Current Version | Previous Version | Text Only | Print | Product List | Glossary On
Versions: 1 2 3 4 5 6 7 8 9 10 11 12 13 14 15 16 17 18 19 20 21 22 23 24 25 26 27 28 29 30 31 32 33 34 35 36 37 38 39 40 41 42 43 44 45 46 47 48 49 50
000
ASUS42 KMHX 301425
RWRMHX
WEATHER ROUNDUP FOR EASTERN NORTH CAROLINA
NATIONAL WEATHER SERVICE NEWPORT/MOREHEAD CITY NC
1000 AM EDT SAT APR 30 2016

NOTE: "FAIR" INDICATES FEW OR NO CLOUDS BELOW 12,000 FEET
WITH NO SIGNIFICANT WEATHER AND/OR OBSTRUCTIONS TO VISIBILITY

NCZ015>017-031-032-045>047-102-103-301500-
NORTH COAST

CITY           SKY/WX    TMP DP  RH WIND       PRES   REMARKS
EDENTON        CLOUDY    57  56  96 NE7       30.17R
ELIZABETH CITY CLOUDY    56  52  86 NE13      30.17R
KITTY HAWK     CLOUDY    56  52  87 N7        30.16R
MANTEO         NOT AVBL

$$

NCZ045>047-081-094-103-104-301500-
CENTRAL COAST

CITY           SKY/WX    TMP DP  RH WIND       PRES   REMARKS
FRISCO         PTSUNNY   61  54  77 NE10G21   30.13S
SWANQUARTER    NOT AVBL

$$

NCZ095-097-098-100-101-301500-
SOUTHERN COAST

CITY           SKY/WX    TMP DP  RH WIND       PRES   REMARKS
BEAUFORT       CLOUDY    62  57  83 VRB3      30.14R
CEDAR ISLAND   NOT AVBL
JACKSONVILLE   CLOUDY    63  57  82 E7        30.12S
PINEY ISLAND   NOT AVBL
WILMINGTON     CLOUDY    65  59  81 E13       30.11R


$$

NCZ011>013-027>030-043-044-078>080-089-090>093-098-301500-
COASTAL PLAIN

CITY           SKY/WX    TMP DP  RH WIND       PRES   REMARKS
AHOSKIE        CLOUDY    55  52  88 N7        30.16S
CLINTON        CLOUDY    61  60  95 E5        30.13R FOG
ELIZABETHTOWN  CLOUDY    65  60  85 E5        30.10S
GOLDSBORO      CLOUDY    64  63  94 E6        30.11S
GREENVILLE     CLOUDY    61  55  82 E7        30.15F
HAVELOCK       CLOUDY    61  56  83 NE6       30.14S
KENANSVILLE    CLOUDY    60  57  90 CALM      30.13S
KINSTON        CLOUDY    63  55  77 E7        30.14S
NEW BERN       CLOUDY    60  54  80 E6        30.15S
RICHLANDS      CLOUDY    63  57  82 E7        30.12F
ROCKY MOUNT    CLOUDY    60  54  80 VRB6      30.14S
WASHINGTON     CLOUDY    58  54  84 NE9       30.15R
WHITEVILLE     CLOUDY    66  62  86 E6        30.09S FOG

$$

AMZ130-135-150-152-154-156-158-170-250-252-270-ANZ085-086-088-633-658-670-301500-
MARINE OBSERVATIONS

STATION/POSITION TIME  TEMP    WIND        PRES    WAVE   SWELL
                       AIR SEA DIR/SP/G            HT/PER HT/PER
                 (UTC) (F)     (DEG/KT/KT) (MB)    (FT/S) (FT/S)
CHESAPEAKE LIGHT 1400   52      30/ 15/ 16 1022.3
64 E VA BEACH    1250   51 53   10/ 14/ 17 1020.2    7/10   5/10
DUCK             1400   53 67   10/ 11/ 14 1021.0
2 E DUCK         1311      58                N/A     5/11   2/11
OREGON INLET     1400   54 62   10/  8/ 13 1021.1
13E OREGON INLT  1300      54                N/A     6/ 9   5/ 9
HATTERAS CG      1400   60 69   30/ 10/ 18 1020.0
DIAMOND BUOY     1250   60 74   30/ 16/ 19 1019.9    5/11   3/11
CAPE LOOKOUT     1400   61      50/  8/  9 1020.2
BEAUFORT LAB     1400   61 67   50/  6/  7 1019.6
30 SE NEW RVR IN 1325      68                N/A     3/ 4
27 SE WRIGHTSVLE 1408   65 69   70/ 17/ 21 1018.6
5 SE WRIGHTSVLE  1408   65 68   80/ 17/ 23 1019.8
225 S CAPE HAT   1250   71 71   60/  8/ 10 1017.7    3/11   3/11
41 SE CHARLESTON 1250   74 72   90/  6/  6 1016.6    2/ 9   2/ 9

$$




USA.gov is the U.S. government's official web portal to all federal, state and local government web resources and services.